This demonstration page uses our WeatherBlox Daily Observations layout. Learn more.

Left ArrowRight Arrow

Hourly Observations for September 1, 2020

Temp ( °F °C ) Dew Point ( °F °C ) Humidity (%) Winds ( mph kmh ) Pressure ( in mb ) Visibility ( mi km ) Precip ( " mm )
12:54 am 00:54 Cloudy 58 14.4 50 10 75 75 N 6 9 29.92 1013 10 16.0934 0 0
1:54 am 01:54 Cloudy 61 16.1 50 10 67 67 N 7 11 29.91 1013 10 16.0934 0 0
2:54 am 02:54 Cloudy 63 17.2 48 8.9 58 58 NE 8 13 29.86 1011 10 16.0934 0 0
3:54 am 03:54 Cloudy 63 17.2 48 8.9 58 58 E 3 6 29.87 1011 10 16.0934 0 0
4:54 am 04:54 Cloudy 62 16.7 49 9.4 62 62 NE 6 9 29.85 1011 10 16.0934 0 0
5:54 am 05:54 Cloudy 62 16.7 50 10 65 65 ENE 5 7 29.86 1011 10 16.0934 0 0
6:54 am 06:54 Cloudy 61 16.1 51 10.6 70 70 N 5 7 29.87 1012 10 16.0934 0 0
7:54 am 07:54 Cloudy 62 16.7 52 11.1 70 70 N 5 7 29.86 1011 9 14.48406 0 0
8:08 am 08:08 Cloudy 63 17.2 52 11.1 68 68 N 5 7 29.87 1011 9 14.48406 0 0
8:54 am 08:54 Cloudy 63 17.2 52 11.1 68 68 NNE 7 11 29.87 1012 9 14.48406 0 0
9:54 am 09:54 Cloudy 64 17.8 52 11.1 65 65 ESE 8 13 29.86 1011 9 14.48406 0 0
10:15 am 10:15 Cloudy with Light Rain 60 15.6 56 13.3 86 86 ESE 7 11 29.87 1011 3 4.82802 0.001 0.001
10:18 am 10:18 Cloudy with Rain 60 15.6 57 13.9 90 90 E 7 11 29.87 1011 2.5 4.02335 0.01 0.254
10:33 am 10:33 Cloudy with Light Rain 60 15.6 57 13.9 90 90 ESE 8 13 29.86 1011 4 6.43736 0.04 1.016
10:51 am 10:51 Cloudy with Light Rain 61 16 57 14 88 88 ESE 9 15 29.85 1011 2.5 4.02335 0.05 1.27
10:54 am 10:54 Cloudy with Light Rain 61 16.1 58 14.4 90 90 ESE 8 13 29.85 1011 2.5 4.02335 0.05 1.27
11:05 am 11:05 Cloudy with Light Rain 61 16.1 58 14.4 90 90 VRB 7 11 29.85 1011 3 4.82802 0.01 0.254
11:54 am 11:54 Cloudy 65 18.3 60 15.6 84 84 E 8 13 29.84 1011 9 14.48406 0.01 0.254
12:23 pm 12:23 Cloudy 66 18.9 59 15 78 78 ESE 9 15 29.82 1010 9 14.48406 0 0
12:34 pm 12:34 Cloudy 67 19.4 60 15.6 79 79 E 6 9 29.82 1010 9 14.48406 0 0
12:54 pm 12:54 Cloudy 68 20 59 15 73 73 E 3 6 29.83 1010 9 14.48406 0 0
1:11 pm 13:11 Cloudy 69 20.6 60 15.6 73 73 Calm 29.81 1010 9 14.48406 0 0
1:47 pm 13:47 Cloudy 71 21.7 60 15.6 68 68 Calm 29.81 1009 9 14.48406 0 0
1:54 pm 13:54 Cloudy 71 21.7 60 15.6 68 68 VRB 5 7 29.83 1010 9 14.48406 0 0
2:54 pm 14:54 Cloudy 72 22.2 61 16.1 68 68 NNW 7 11 29.81 1010 9 14.48406 0 0
3:54 pm 15:54 Mostly Cloudy 75 23.9 61 16.1 62 62 Calm 29.79 1009 10 16.0934 0 0
4:03 pm 16:03 Partly Cloudy 76 24.4 61 16.1 60 60 VRB 3 6 29.77 1008 10 16.0934 0 0
4:54 pm 16:54 Sunny 77 25 61 16.1 58 58 VRB 3 6 29.76 1008 9 14.48406 0 0
5:54 pm 17:54 Sunny 77 25 61 16.1 58 58 VRB 3 6 29.75 1008 9 14.48406 0 0
6:54 pm 18:54 Sunny 77 25 62 16.7 60 60 VRB 3 6 29.75 1007 9 14.48406 0 0
7:54 pm 19:54 Sunny 75 23.9 62 16.7 64 64 WSW 5 7 29.77 1008 9 14.48406 0 0
8:54 pm 20:54 Clear 68 20 62 16.7 81 81 S 6 9 29.8 1009 10 16.0934 0 0
9:54 pm 21:54 Clear 67 19.4 62 16.7 84 84 S 5 7 29.81 1009 10 16.0934 0 0
10:54 pm 22:54 Clear 65 18.3 61 16.1 87 87 S 6 9 29.83 1010 10 16.0934 0 0
11:54 pm 23:54 Clear 65 18.3 61 16.1 87 87 S 3 6 29.83 1010 9 14.48406 0 0

Powered by AerisWeather